Regional Weather Roundup
Issued by NWS

Home | Current Version | Previous Version | Graphics & Text | Print | Product List | Glossary On
Versions: 1 2 3 4 5 6 7 8 9 10 11 12 13 14 15 16 17 18 19 20 21 22 23 24 25 26 27 28 29 30 31 32 33 34 35 36 37 38 39 40 41 42 43 44 45 46 47 48 49 50
000
ASUS45 KABQ 280001
RWRNM
NEW MEXICO REGIONAL WEATHER ROUNDUP
NATIONAL WEATHER SERVICE ALBUQUERQUE NM
600 PM MDT WED JUL 27 2016

NOTE: "FAIR" MEANS FEW OR NO CLOUDS BELOW 12,000 FEET AGL WITH NO
       SIGNIFICANT WEATHER OR OBSTRUCTIONS TO VISION.

      THIS PRODUCT IS RELEASED AS TWO VERSIONS.  ONE VERSION NEAR
      THE TOP OF THE HOUR CONTAINING PRELIMINARY DATA FROM ALBUQUERQUE
      AND OTHER STATIONS.  A FINAL VERSION WITH ADDITIONAL DATA IS
      ISSUED ABOUT 10 MINUTES AFTER THE HOUR.

NMZ501-503-504-510>518-280100-
NORTHWEST PLATEAU/NORTHCENTRAL MOUNTAINS

CITY           SKY/WX    TMP DP  RH WIND       PRES   REMARKS
FARMINGTON     FAIR      98  27   8 N7G20     30.06F
6HR MIN TEMP:  84; 6HR MAX TEMP: 100;

LOS ALAMOS     FAIR      83  42  23 SE12G18   30.27R
SANTA FE       FAIR      86  45  23 SE16      30.18F
6HR MIN TEMP:  83; 6HR MAX TEMP:  93;

TAOS           FAIR      86  41  20 SE20      30.26S
ANGEL FIRE     FAIR      75  39  27 N7        30.39F

$$
NMZ402-403-502-505>509-280100-
WESTCENTRAL MOUNTAINS/SOUTHWEST MOUNTAINS

CITY           SKY/WX    TMP DP  RH WIND       PRES   REMARKS
GALLUP         FAIR      92  28  10 NE10      30.19F
6HR MIN TEMP:  88; 6HR MAX TEMP:  95;

GRANTS         FAIR      89  31  12 N10       30.20F
SILVER CITY    FAIR      76  57  51 CALM      30.14S

$$
NMZ407-409-411-412-280100-
SOUTHERN DESERTS

CITY           SKY/WX    TMP DP  RH WIND       PRES   REMARKS
LORDSBURG      FAIR      79  59  50 NW8       30.05R
DEMING         FAIR      81  66  60 W6        30.04F
6HR MIN TEMP:  76; 6HR MAX TEMP:  93; 6HR PCP:  0.02;

LAS CRUCES     FAIR      90  53  28 CALM      30.05S
HOLLOMAN AFB   FAIR      92  53  26 S10       30.00F
ALAMOGORDO     FAIR      91  54  27 S10       30.03S
T OR C         FAIR      91  52  26 SE7       30.05F
6HR MIN TEMP:  84; 6HR MAX TEMP:  94;


$$
NMZ519>523-280100-
CENTRAL VALLEYS/CENTRAL HIGHLANDS

CITY           SKY/WX    TMP DP  RH WIND       PRES   REMARKS
ALBUQUERQUE    FAIR      91  49  23 E22       30.10F
6HR MIN TEMP:  83; 6HR MAX TEMP:  93;

DOUBLE EAGLE   PTSUNNY   90  46  22 VRB6      30.14F
MORIARTY ARPT  LGT RAIN  67  55  64 CALM      30.26F
6HR MIN TEMP:  64; 6HR MAX TEMP:  91; 6HR PCP:  0.23;

CLINES CORNERS PTSUNNY   70  53  54 N10       30.30S
6HR MIN TEMP:  70; 6HR MAX TEMP:  85; 6HR PCP: TRACE;

BELEN          FAIR      92  45  19 E7        30.09F
6HR MIN TEMP:  82; 6HR MAX TEMP:  93;

SOCORRO        PTSUNNY   95  47  19 E14       30.06F
6HR MIN TEMP:  83; 6HR MAX TEMP:  95;


$$
NMZ524>526-539-540-280100-
SOUTHCENTRAL MOUNTAINS

CITY           SKY/WX    TMP DP  RH WIND       PRES   REMARKS
RUIDOSO          N/A     73  54  49 CALM      30.28F

$$
NMZ527>531-280100-
NORTHEAST HIGHLANDS/NORTHEAST PLAINS

CITY           SKY/WX    TMP DP  RH WIND       PRES   REMARKS
LAS VEGAS      FAIR      80  41  24 W6        30.26F
6HR MIN TEMP:  67; 6HR MAX TEMP:  87; 6HR PCP:  0.01;

RATON          FAIR      87  51  28 E22G30    30.18F
6HR MIN TEMP:  69; 6HR MAX TEMP:  89; 6HR PCP:  0.03;

CLAYTON        FAIR      90  49  24 SE14      30.10S
6HR MIN TEMP:  72; 6HR MAX TEMP:  90; 6HR PCP: TRACE;


$$
NMZ532>537-280100-
EASTCENTRAL PLAINS

CITY           SKY/WX    TMP DP  RH WIND       PRES   REMARKS
TUCUMCARI      CLOUDY    89  55  31 SE26G37   30.03R
6HR MIN TEMP:  89; 6HR MAX TEMP:  99;

CANNON AFB     FAIR      84  59  42 E16       30.09S
6HR MIN TEMP:  71; 6HR MAX TEMP:  89; 6HR PCP:  0.27;

CLOVIS AIRPORT FAIR      84  57  39 SE15      30.10S

$$
NMZ028-029-538-280100-
SOUTHEAST PLAINS

CITY           SKY/WX    TMP DP  RH WIND       PRES   REMARKS
ROSWELL        FAIR      95  52  23 MISG      29.98F
6HR MIN TEMP:  90; 6HR MAX TEMP:  98;

ARTESIA        FAIR      95  54  24 SE7G15    29.99S
CARLSBAD       FAIR      94  53  25 E7        29.96S
6HR MIN TEMP:  88; 6HR MAX TEMP:  97;

HOBBS          MOSUNNY   93  48  21 E10       30.03S


$$



USA.gov is the U.S. government's official web portal to all federal, state and local government web resources and services.